Location: Unspecified
(0.0000°N, 0.0000°E)
Time: 15:50:02
(UTC+00:00)

STARLINK-34060 - Visible Passes

Search period start: 15 June 2025 00:00
Search period end: 25 June 2025 00:00
Orbit: 443 x 445 km, 43.0° (Epoch: 15 June)

Date Brightness Start Highest point End Pass type
(mag) Time Alt. Az. Time Alt. Az. Time Alt. Az.
21 Jun 5.2 18:28:24 10° SSE 18:29:31 11° SE 18:30:38 10° ESE visible
21 Jun 5.8 20:04:09 10° WSW 20:05:02 16° WSW 20:05:02 16° WSW visible
22 Jun 3.6 19:23:24 10° SW 19:26:54 60° NW 19:29:26 17° NNE visible
23 Jun 3.1 18:42:47 10° SW 18:46:18 85° SE 18:49:49 10° NE visible
